Location: ???????????
(55.5758°N, 38.4970°E)
Time: 18:13:33
(UTC+00:00)

CZ-2D R/B - Pass Details

Date: 15 November 2025
Orbit: 788 x 842 km, 98.9° (Epoch: 14 December)

Event Time Altitude Azimuth Distance (km) Brightness Sun altitude
Rises 00:33:14 0° 16° (NNE) 3,329 5.8 -37.0°
Reaches altitude 10° 00:35:35 10° 15° (NNE) 2,387 4.9 -36.7°
Enters shadow 00:36:52 18° 14° (NNE) 1,891 4.3 -36.5°
